This demonstration page uses our WeatherBlox Daily Observations layout. Learn more.

Left ArrowRight Arrow

Hourly Observations for July 7, 2015

Temp ( °F °C ) Dew Point ( °F °C ) Humidity (%) Winds ( mph kmh ) Pressure ( in mb ) Visibility ( mi km ) Precip ( " mm )
12:53 am 00:53 Clear 77 25 70 21.1 79 79 VRB 3 6 29.98 1015 9 14 N/A
1:53 am 01:53 Clear 76 24.4 70 21.1 82 82 VRB 3 6 29.98 1015 10 16 N/A
2:53 am 02:53 Mostly Clear 74 23.3 70 21.1 88 88 N N/A 29.97 1015 10 16 N/A
3:53 am 03:53 Partly Cloudy 75 23.9 70 21.1 84 84 SSW 3 6 29.97 1015 10 16 N/A
4:53 am 04:53 Mostly Cloudy 76 24.4 71 21.7 85 85 SW 3 6 29.97 1015 10 16 N/A
5:53 am 05:53 Mostly Clear 75 23.9 71 21.7 88 88 VRB 3 6 29.96 1015 10 16 N/A
6:28 am 06:28 Mostly Cloudy 76 24.4 71 21.7 85 85 VRB 3 6 30.00 1016 10 16 N/A
6:53 am 06:53 Cloudy 76 24.4 71 21.7 85 85 VRB 3 6 29.97 1015 10 16 N/A
7:06 am 07:06 Cloudy 76 24.4 71 21.7 85 85 S 3 6 30.00 1016 10 16 N/A
7:53 am 07:53 Cloudy 77 25 72 22.2 85 85 SSW 5 7 29.97 1015 9 14 N/A
8:53 am 08:53 Cloudy 77 25 72 22.2 85 85 SW 8 13 29.98 1015 8 13 N/A
9:01 am 09:01 Cloudy 77 25 72 22.2 85 85 VRB 5 7 30.00 1016 8 13 N/A
9:53 am 09:53 Cloudy 79 26.1 72 22.2 79 79 VRB 3 6 29.97 1015 8 13 N/A
10:53 am 10:53 Cloudy 81 27.2 73 22.8 77 77 SW 9 15 29.97 1015 9 14 N/A
11:29 am 11:29 Mostly Cloudy 80 26.7 73 22.8 79 79 SSW 7 11 29.94 1014 8 13 N/A
11:53 am 11:53 Mostly Cloudy 81 27.2 74 23.3 79 79 VRB 6 9 29.96 1014 9 14 N/A
12:04 pm 12:04 Mostly Cloudy 82 27.8 73 22.8 74 74 SW 9 15 29.94 1014 10 16 N/A
12:43 pm 12:43 Mostly Cloudy 81 27.2 73 22.8 77 77 SW 6 9 29.91 1013 10 16 N/A
12:53 pm 12:53 Mostly Cloudy 82 27.8 73 22.8 74 74 SSW 9 15 29.93 1013 10 16 N/A
1:25 pm 13:25 Mostly Cloudy 82 27.8 71 21.7 69 69 SW 12 19 29.91 1013 10 16 N/A
1:34 pm 13:34 Mostly Cloudy 83 28.3 73 22.8 72 72 SSW 13 20 29.91 1013 10 16 N/A
1:53 pm 13:53 Mostly Cloudy 82 27.8 71 21.7 69 69 SW 13 20 29.94 1014 10 16 N/A
2:00 pm 14:00 Mostly Cloudy 81 27.2 72 22.2 74 74 VRB 7 11 29.94 1014 10 16 N/A
2:09 pm 14:09 Cloudy 80 26.7 71 21.7 74 74 SW 10 17 29.91 1013 10 16 N/A
2:49 pm 14:49 Mostly Cloudy 81 27 72 22 74 74 SW 12 19 29.91 1013 10 16 N/A
2:53 pm 14:53 Cloudy 80 26.7 72 22.2 76 76 VRB 7 11 29.93 1013 10 16 N/A
3:18 pm 15:18 Cloudy 79 26.1 71 21.7 77 77 SW 9 15 29.91 1013 10 16 N/A
3:35 pm 15:35 Cloudy 80 26.7 72 22.2 76 76 SW 8 13 29.91 1013 N/A N/A
3:53 pm 15:53 Cloudy 80 26.7 72 22.2 76 76 VRB 7 11 29.93 1013 N/A N/A
4:53 pm 16:53 Cloudy 79 26.1 72 22.2 79 79 undefined N/A 29.93 1014 10 16 N/A
5:40 pm 17:40 Cloudy 79 26.1 71 21.7 77 77 SW 13 20 29.91 1013 10 16 N/A
5:53 pm 17:53 Cloudy 79 26.1 71 21.7 77 77 SW 9 15 29.94 1014 10 16 N/A
6:53 pm 18:53 Cloudy with Rain 75 23.9 72 22.2 90 90 SW 9 15 29.94 1014 4 6 0.02 0.51
7:06 pm 19:06 Cloudy with Heavy Rain 74 23.3 71 21.7 91 91 VRB 6 9 29.97 1015 2 3 0.04 1.02
7:16 pm 19:16 Cloudy with Rain 73 22.8 71 21.7 94 94 SW 7 11 29.97 1015 3 5 0.05 1.27
7:29 pm 19:29 Cloudy with Rain 73 22.8 71 21.7 94 94 SW 6 9 29.94 1014 2 3 0.09 2.29
7:36 pm 19:36 Cloudy with Rain 73 22.8 71 21.7 94 94 SW 9 15 29.94 1014 2 2 0.12 3.05
7:42 pm 19:42 Cloudy with Light Rain 73 22.8 71 21.7 94 94 SSW 6 9 29.94 1014 3 5 0.12 3.05
7:53 pm 19:53 Cloudy with Light Rain 73 22.8 70 21.1 90 90 SSW 9 15 29.93 1014 4 6 0.13 3.30
8:24 pm 20:24 Cloudy with Light Rain 73 22.8 70 21.1 90 90 SW 10 17 29.94 1014 8 13 0.04 1.02
8:53 pm 20:53 Cloudy 73 22.8 71 21.7 94 94 WSW 8 13 29.94 1014 10 16 0.04 1.02
9:13 pm 21:13 Cloudy 73 22.8 71 21.7 94 94 VRB 7 11 29.97 1015 10 16 N/A
9:53 pm 21:53 Cloudy with Mist and Fog 71 21.7 70 21.1 96 96 W 7 11 29.97 1015 5 8 N/A
10:17 pm 22:17 Cloudy 71 21.7 68 20 90 90 WNW 13 20 30.00 1016 10 16 N/A
10:53 pm 22:53 Cloudy 69 20.6 67 19.4 93 93 NW 9 15 30.01 1016 10 16 N/A
11:53 pm 23:53 Cloudy 69 20.6 66 18.9 90 90 NW 6 9 30.02 1017 10 16 N/A

Powered by AerisWeather